Content
SEND FEEDBACK

Daily
Averages
Monthly
Summary
Russia

BUGACHEVO, RUSSIA


Home > Europe > Russia
Elevation: 906 feet     Latitude: 56 01N     Longitude: 092 45E

WEATHER
 
SELECT A DAY
Number of Records: 156,828;   Date Range: 1/29/98 - 8/30/14
 
SHARE

PRINT THIS DATA

[ ← Previous Day ]
WEATHER ALMANAC - JANUARY 31, 2013
[ Next Day → ]
[ °C ]   °F
Weather ElementAverageHighLow
Temperature-7.9 °F3.2 °F (4:00 pm)-18.4 °F (1:30 am)
Dewpoint-14.3 °F-4 °F (3:30 pm)-25.6 °F (2:00 am)
Humidity73.8 %85 % (11:30 pm)66 % (4:00 pm)
Barometer30.33 in30.39 in (9:00 pm)30.30 in (12:30 am)
Wind Speed0.1 mph2.2 mph (8:30 pm)
Wind Gust8.9 mph (8:30 pm)

Weather ElementAverage
Visibility4.7 mi
Weather ElementTotal
Precipitation---
Heating Degree Days72.6 (Base 65)
Averaged from 47 records on January 31, 2013
WEATHER CONDITIONS BREAKOUT
WIND DIRECTION BREAKOUT
WEATHER BY HOUR - JANUARY 31, 2013
[ °C ]   °F
Local TimeTemperatureDewpointHumidityBarometerVisibilityWind DirectionWind SpeedGust SpeedPrecipitationEventsConditions
12:30 AM-16.6 °F-23.8 °F70 %30.30 in3.7 miCalmClear
1:00 AM-16.6 °F-23.8 °F70 %30.30 in3.7 miCalmClear
1:30 AM-18.4 °F-23.8 °F76 %30.30 in4.3 miCalmClear
2:00 AM-18.4 °F-25.6 °F70 %30.30 in3.7 miCalmClear
2:30 AM-18.4 °F-25.6 °F70 %30.30 in3.1 miCalmClear
3:00 AM-16.6 °F-22.0 °F76 %30.30 in3.7 miCalmPartly Cloudy
3:30 AM-18.4 °F-23.8 °F76 %30.30 in5.6 miCalmClear
4:00 AM-18.4 °F-25.6 °F70 %30.30 in4.3 miCalmClear
4:30 AM-18.4 °F-25.6 °F70 %30.30 in3.7 miCalmFogPatches of Fog
5:00 AM-18.4 °F-25.6 °F70 %30.30 in4.3 miCalmScattered Clouds
5:30 AM-16.6 °F-23.8 °F70 %30.30 in3.7 miCalmFogPatches of Fog
6:00 AM-16.6 °F-23.8 °F70 %30.30 in4.3 miCalmFogPatches of Fog
6:30 AM-16.6 °F-23.8 °F70 %30.30 in4.3 miCalmFogPatches of Fog
7:00 AM-16.6 °F-22.0 °F76 %30.30 in5.0 miCalmFogPatches of Fog
7:30 AM-14.8 °F-22.0 °F70 %30.30 inCalmClear
8:00 AM-14.8 °F-20.2 °F77 %30.30 inCalmClear
8:30 AM-14.8 °F-22.0 °F70 %30.33 in5.6 miCalmSnowLight Snow
9:00 AM-13.0 °F-20.2 °F70 %30.33 in3.1 miCalmSnowLight Snow
9:30 AM-13.0 °F-18.4 °F77 %30.33 inCalmSnowLight Snow
10:00 AM-13.0 °F-18.4 °F77 %30.33 inCalmSnowLight Snow
10:30 AM-13.0 °F-18.4 °F77 %30.33 inCalmSnowLight Snow
11:00 AM-11.2 °F-16.6 °F77 %30.33 in4.3 miCalmOvercast
11:30 AM-9.4 °F-14.8 °F77 %30.33 in6.2 miCalmOvercast
12:00 PM-5.8 °F-11.2 °F77 %30.33 in3.7 miCalmSnowLight Snow
12:30 PM-4.0 °F-11.2 °F71 %30.33 inCalmSnowLight Snow
1:00 PM-2.2 °F-9.4 °F71 %30.33 in3.1 miCalmSnowLight Snow
1:30 PM-2.2 °F-9.4 °F71 %30.33 in3.7 miCalmSnowLight Snow
2:00 PM-0.4 °F-7.6 °F72 %30.33 inCalmSnowLight Snow
2:30 PM-0.4 °F-7.6 °F72 %30.33 in3.7 miCalmSnowLight Snow
3:00 PM1.4 °F-5.8 °F72 %30.33 in6.2 miCalmOvercast
3:30 PM1.4 °F-4.0 °F78 %30.33 in3.1 miCalmOvercast
4:00 PM3.2 °F-5.8 °F66 %30.33 inCalmOvercast
4:30 PM-0.4 °F-7.6 °F72 %30.33 inCalmSnowLight Snow
5:00 PM1.4 °F-5.8 °F72 %30.33 inCalmSnowLight Snow
5:30 PM-0.4 °F-7.6 °F72 %30.36 in3.1 miCalmSnowLight Snow
6:00 PM1.4 °F-5.8 °F72 %30.36 in4.3 miCalmSnowLight Snow
6:30 PM-0.4 °F-5.8 °F78 %30.36 in6.2 miCalmMostly Cloudy
7:00 PM-0.4 °F-5.8 °F78 %30.36 in6.2 miCalmMostly Cloudy
7:30 PM-0.4 °F-5.8 °F78 %30.36 in6.2 miCalmMostly Cloudy
8:00 PM-0.4 °F-5.8 °F78 %30.36 in6.2 miCalmMostly Cloudy
8:30 PM-0.4 °F-5.8 °F78 %30.36 in6.2 miVariable2.2 mph8.9 mphMostly Cloudy
9:00 PM1.4 °F-5.8 °F72 %30.39 in6.2 miCalmMostly Cloudy
9:30 PM-0.4 °F-5.8 °F78 %30.39 in6.2 miVariable2.2 mph8.9 mphMostly Cloudy
10:00 PM3.2 °F-4.0 °F72 %30.39 in6.2 miCalmMostly Cloudy
10:30 PM-0.4 °F-5.8 °F78 %30.39 in6.2 miCalmMostly Cloudy
11:00 PM-2.2 °F-7.6 °F78 %30.39 in6.2 miCalmMostly Cloudy
11:30 PM-2.2 °F-5.8 °F85 %30.39 in6.2 miCalmMostly Cloudy
Hourly data recorded from UNKL, located miles away from Bugachevo, Russia







STORIES FROM OUR PARTNERS